[[{"header":{"parameterUnit":"m.s-1","parameterCategory":1,"la1":30.2991,"la2":30.254,"lo1":-89.0895,"lo2":-89.0444,"dy":0.0017,"dx":0.0017,"nx":28,"ny":28,"refTime":"2024-06-26T09:00:00:Z","depth":0,"parameterNumber":2,"parameterNumberName":"U-component_of_WINDS"},"data":[0,0,0,0,0,0,0,0,0,0,0,0,0,0,0,0,0,0,0,0,0,0,0,0,0,0,0,0,0,0,0,0,0,0,0,0,0,0,0,0,0,0,0,0,0,0,0,0,0,0,0,0,0,0,0,0,0,0,3.6322,3.6324,0,3.6496,3.6498,3.65,3.6521,3.652,3.6518,3.6516,3.6695,3.6701,3.6707,0,0,0,0,0,0,0,0,0,0,0,0,0,3.6009,3.6015,3.6322,3.6324,3.6327,3.6496,3.6498,3.6501,3.6522,3.652,3.6518,3.6516,3.6693,3.67,3.6708,0,0,0,0,0,0,0,0,0,0,0,0,0,3.616,3.6017,3.6322,3.6358,3.6362,3.6495,3.6498,3.6501,3.6522,3.652,3.6517,3.6515,3.669,3.6699,3.6709,3.6818,0,0,3.6738,3.6742,0,0,0,0,0,0,0,0,3.6152,3.6172,3.635,3.6355,3.6361,3.6484,3.6453,3.6608,3.6523,3.6461,3.6516,3.6513,3.6627,3.6641,3.668,3.6827,3.6834,3.6739,3.6744,3.6749,3.6751,0,0,0,0,0,0,0,3.6141,3.6164,3.6391,3.6353,3.6359,3.6365,3.6384,3.6483,3.6556,3.6467,3.6469,3.6489,3.6629,3.667,3.6684,3.6837,3.6738,3.6747,3.6753,3.6756,3.7082,3.7085,0,0,0,0,0,0,3.6124,3.6155,3.6386,3.6396,3.6248,3.6373,3.6394,3.6447,3.6555,3.6569,3.6491,3.6489,3.6655,3.6673,3.669,3.6825,3.6748,3.6757,3.6763,3.7079,3.7083,3.7086,0,0,0,0,0,0,3.6117,3.6144,3.6379,3.6277,3.6307,3.6381,3.6441,3.6452,3.6493,3.6574,3.6587,3.6519,3.6654,3.6677,3.6786,3.6831,3.6762,3.677,3.7076,3.708,3.7084,3.7095,0,0,0,0,0,0,3.6108,3.6142,3.6184,3.6277,3.6312,3.6471,3.6444,3.6457,3.6509,3.6509,3.6604,3.6617,3.6654,3.6772,3.6796,3.6843,3.6778,3.7072,3.7078,3.7083,3.7091,3.7099,3.7106,0,0,0,0,0,3.6097,3.618,3.6186,3.6214,3.6366,3.6474,3.6494,3.6534,3.6513,3.6556,3.6608,3.6614,3.6823,3.6783,3.681,3.6861,3.7069,3.7076,3.7083,3.7087,3.7097,3.7106,0,0,0,0,0,0,3.609,3.6193,3.6201,3.6317,3.6386,3.6477,3.6532,3.6544,3.6621,3.6617,3.6665,3.6686,3.6793,3.6838,3.6792,3.6972,3.6944,3.6956,3.6938,3.6949,3.6956,3.6942,3.6786,0,0,0,0,0,3.6102,3.6181,3.6267,3.6361,3.6395,3.6458,3.6506,3.6532,3.6606,3.6635,3.6695,3.6767,3.6849,3.6902,3.6981,3.7098,3.7118,3.7146,3.7154,3.716,3.7169,3.7234,3.7247,3.7108,3.7108,3.7108,0,0,3.6128,3.6194,3.624,3.6361,3.6418,3.6498,3.6482,3.6568,3.6628,3.6648,3.6755,3.6801,3.6885,3.6998,3.705,3.7038,3.7213,3.7168,3.7173,3.7179,3.7242,3.7255,3.7266,3.7112,3.7111,3.7111,0,0,3.6215,3.6273,3.6357,3.6415,3.6501,3.6543,3.6563,3.6653,3.6684,3.6792,3.6808,3.6881,3.7021,3.7079,3.7127,3.7237,3.7245,3.7262,3.7302,3.7364,3.7374,3.7384,3.7422,3.7435,3.7272,3.7272,3.7272,0,3.6236,3.6357,3.6399,3.6484,3.6537,3.6559,3.6645,3.6699,3.6807,3.6842,3.6827,3.7003,3.7061,3.7188,3.7215,3.7253,3.7277,3.725,3.7369,3.738,3.739,3.7426,3.7441,3.7273,3.7273,3.7273,3.7273,0,3.6378,3.6461,3.6519,3.6623,3.6682,3.6767,3.6822,3.6877,3.6897,3.694,3.7049,3.7119,3.7213,3.7246,3.7267,3.7376,3.7365,3.736,3.7332,3.7403,3.7439,3.7453,3.7275,3.7274,3.7274,3.7274,0,0,3.6464,3.659,3.661,3.6657,3.6755,3.682,3.6906,3.6998,3.7044,3.7118,3.7191,3.7309,3.7304,3.7359,3.7387,3.7442,3.7523,3.743,3.7432,3.7443,3.7646,3.7648,3.7663,3.753,3.7533,3.7535,3.7638,0,3.6561,3.6714,3.6755,3.6885,3.6963,3.6986,3.706,3.7128,3.7171,3.7243,3.729,3.7373,3.7361,3.7394,3.7449,3.7501,3.7564,3.7495,3.7597,3.76,3.7573,3.7682,3.7685,3.7779,3.7652,3.7655,3.7656,0,3.6694,3.6771,3.6908,3.6995,3.7029,3.7095,3.7183,3.7252,3.7329,3.7356,3.7417,3.7441,3.7531,3.75,3.7625,3.7577,3.7622,3.7654,3.7658,3.7668,3.7631,3.7693,3.781,3.7823,3.7679,3.7677,3.7675,0,3.6741,3.6879,3.6979,3.7019,3.7123,3.7169,3.7214,3.729,3.7342,3.7419,3.7453,3.7539,3.7586,3.7653,3.7699,3.7672,3.7819,3.7792,3.7844,3.7843,3.7872,3.7869,3.7996,3.7904,3.7904,3.7904,3.7903,0,3.6845,3.6927,3.7001,3.7062,3.7156,3.7203,3.7294,3.734,3.7407,3.7478,3.7504,3.7569,3.7627,3.77,3.7737,3.7834,3.7856,3.788,3.7888,3.7877,3.7873,3.7905,3.7899,3.7907,3.7907,3.7906,3.7905,0,3.6912,3.6965,3.7075,3.7165,3.719,3.7254,3.7331,3.7391,3.7435,3.7524,3.7548,3.7617,3.7705,3.7757,3.7869,3.7894,3.8001,3.8007,3.7974,3.7977,3.8025,3.8019,3.8175,3.8197,3.8092,3.8093,3.8094,0,3.6973,3.7038,3.7134,3.7183,3.7229,3.7308,3.7362,3.7411,3.7465,3.7558,3.7607,3.7697,3.7771,3.791,3.797,3.8056,3.8064,3.8113,3.8077,3.8062,3.8063,3.8057,3.8063,3.8118,3.8119,3.8119,3.812,0,3.7076,3.7099,3.7175,3.7261,3.7324,3.7393,3.7463,3.7502,3.7562,3.7623,3.7713,3.777,3.7884,3.7972,3.8063,3.811,3.8125,3.8131,3.8147,3.8135,3.8112,3.8123,3.7988,3.8127,3.8126,3.8126,3.8125,3.8125,3.7142,3.7199,3.7276,3.736,3.7417,3.7481,3.7542,3.7593,3.7669,3.7765,3.779,3.7884,3.796,3.8083,3.8133,3.8207,3.8199,3.8223,3.8229,3.8233,3.8234,3.8102,3.8224,3.8224,3.8224,3.8224,3.8224,0,3.7244,3.7294,3.7371,3.7467,3.7533,3.7542,3.762,3.7674,3.7756,3.7826,3.7898,3.8001,3.8087,3.8154,3.8243,3.8289,3.8298,3.8311,3.8307,3.8317,3.8236,3.8213,3.8302,3.8302,3.8302,3.8302,3.8301,3.8301,3.7305,3.7402,3.7435,3.7561,3.7611,3.7703,3.7747,3.7806,3.7862,3.7975,3.8047,3.809,3.8159,3.8252,3.8331,3.8349,3.8379,3.839,3.8409,3.8331,3.8323,3.8315,3.8293,3.8397,3.8397,3.8483,3.8484,3.8484]},{"header":{"parameterUnit":"m.s-1","parameterCategory":1,"la1":30.2991,"la2":30.254,"lo1":-89.0895,"lo2":-89.0444,"dy":0.0017,"dx":0.0017,"nx":28,"ny":28,"refTime":"2024-06-26T09:00:00:Z","depth":0,"parameterNumber":3,"parameterNumberName":"V-component_of_WINDS"},"data":[0,0,0,0,0,0,0,0,0,0,0,0,0,0,0,0,0,0,0,0,0,0,0,0,0,0,0,0,0,0,0,0,0,0,0,0,0,0,0,0,0,0,0,0,0,0,0,0,0,0,0,0,0,0,0,0,0,0,1.8599,1.86,0,1.8749,1.8751,1.8752,1.8778,1.8776,1.8775,1.8774,1.8927,1.8932,1.8938,0,0,0,0,0,0,0,0,0,0,0,0,0,1.8332,1.8337,1.8598,1.86,1.8602,1.8749,1.8751,1.8753,1.8778,1.8776,1.8775,1.8773,1.8926,1.8932,1.8938,0,0,0,0,0,0,0,0,0,0,0,0,0,1.8462,1.8338,1.8598,1.8632,1.8637,1.8748,1.8751,1.8753,1.8778,1.8776,1.8774,1.8773,1.8924,1.8931,1.8939,1.9027,0,0,1.8963,1.8967,0,0,0,0,0,0,0,0,1.8454,1.8471,1.8625,1.863,1.8636,1.8743,1.8713,1.8845,1.8779,1.8725,1.8774,1.8772,1.8867,1.888,1.8912,1.9034,1.904,1.8964,1.8969,1.8972,1.8974,0,0,0,0,0,0,0,1.8445,1.8465,1.8658,1.8628,1.8634,1.864,1.8656,1.8738,1.8805,1.8729,1.8731,1.8749,1.887,1.8905,1.8916,1.9043,1.8964,1.8971,1.8976,1.8979,1.9244,1.9246,0,0,0,0,0,0,1.843,1.8457,1.8653,1.8662,1.8538,1.8646,1.8665,1.871,1.8804,1.8817,1.875,1.8749,1.8892,1.8907,1.8922,1.9031,1.8972,1.898,1.8984,1.9241,1.9244,1.9247,0,0,0,0,0,0,1.8424,1.8447,1.8647,1.8561,1.8586,1.8653,1.8704,1.8714,1.8749,1.882,1.8832,1.8774,1.8891,1.891,1.9,1.9037,1.8983,1.899,1.9239,1.9242,1.9245,1.925,0,0,0,0,0,0,1.8417,1.8445,1.8479,1.8561,1.8591,1.8724,1.8706,1.8719,1.8763,1.8763,1.8845,1.8857,1.8891,1.8988,1.9008,1.9047,1.8997,1.9236,1.924,1.9244,1.9247,1.9253,1.9258,0,0,0,0,0,1.8407,1.8474,1.8481,1.8504,1.8635,1.8726,1.8743,1.8781,1.8765,1.88,1.8846,1.8854,1.9029,1.8997,1.902,1.9061,1.9234,1.9239,1.9244,1.9244,1.9252,1.9258,0,0,0,0,0,0,1.8395,1.8486,1.8494,1.859,1.865,1.873,1.8775,1.8788,1.8853,1.8851,1.8894,1.8913,1.9001,1.904,1.9003,1.9151,1.913,1.914,1.9122,1.913,1.9136,1.9125,1.9003,0,0,0,0,0,1.8403,1.847,1.8545,1.8622,1.8652,1.8708,1.8749,1.8773,1.8837,1.8863,1.8915,1.8976,1.9045,1.909,1.9157,1.9252,1.927,1.9291,1.9297,1.9301,1.931,1.9363,1.9374,1.9263,1.9263,1.9263,0,0,1.8422,1.8479,1.8519,1.8622,1.8671,1.8739,1.873,1.8801,1.8852,1.8874,1.8962,1.9002,1.9074,1.9167,1.921,1.9202,1.9344,1.9308,1.9311,1.9317,1.937,1.938,1.9389,1.9267,1.9266,1.9266,0,0,1.849,1.854,1.861,1.866,1.8735,1.8772,1.8788,1.8867,1.8894,1.8984,1.9001,1.9062,1.9179,1.9229,1.927,1.9357,1.9367,1.9377,1.9408,1.946,1.9468,1.9476,1.9508,1.9519,1.9385,1.9385,1.9385,0,1.8504,1.8606,1.8645,1.8716,1.8761,1.8783,1.8855,1.8901,1.8994,1.9024,1.9013,1.9161,1.9211,1.9316,1.9337,1.9369,1.939,1.9369,1.9464,1.9472,1.948,1.9511,1.9523,1.9386,1.9386,1.9386,1.9386,0,1.862,1.8691,1.8738,1.8828,1.8878,1.8949,1.8998,1.9044,1.9063,1.91,1.9191,1.9251,1.9331,1.9358,1.9377,1.9466,1.9459,1.9455,1.9436,1.9491,1.9521,1.9533,1.9387,1.9387,1.9387,1.9386,0,0,1.8686,1.8795,1.8812,1.8853,1.8937,1.8993,1.9064,1.9143,1.9182,1.9244,1.9306,1.9404,1.9402,1.9448,1.9473,1.9518,1.9584,1.951,1.9512,1.9523,1.9687,1.969,1.9703,1.9591,1.9593,1.9595,1.9681,0,1.8765,1.8895,1.8931,1.904,1.9107,1.9128,1.9191,1.9249,1.9285,1.9347,1.9387,1.9457,1.9448,1.9476,1.9521,1.9566,1.9618,1.956,1.9649,1.9652,1.9632,1.9718,1.9722,1.9801,1.9693,1.9695,1.9696,0,1.8875,1.8941,1.9057,1.9132,1.9161,1.9217,1.9292,1.935,1.9416,1.944,1.9491,1.9512,1.9587,1.9562,1.9667,1.9627,1.9665,1.9692,1.9696,1.9707,1.9679,1.9733,1.9827,1.9839,1.9715,1.9713,1.9712,0,1.8914,1.903,1.9115,1.9149,1.9239,1.9278,1.9317,1.9381,1.9426,1.9491,1.9521,1.9593,1.9633,1.9689,1.9728,1.9706,1.983,1.9808,1.9852,1.9851,1.9879,1.9877,1.9981,1.99,1.99,1.99,1.99,0,1.8999,1.907,1.9134,1.9186,1.9265,1.9306,1.9383,1.9423,1.948,1.954,1.9562,1.9618,1.9667,1.9729,1.976,1.9843,1.986,1.9881,1.9889,1.9881,1.9878,1.9907,1.9904,1.9903,1.9902,1.9902,1.9901,0,1.9056,1.9102,1.9196,1.9273,1.9294,1.9349,1.9415,1.9467,1.9504,1.958,1.96,1.9658,1.9733,1.9777,1.9871,1.9892,1.9984,1.9988,1.9962,1.9966,2.0008,2.0004,2.0136,2.0156,2.006,2.0061,2.0062,0,1.9108,1.9163,1.9246,1.9288,1.9328,1.9396,1.9442,1.9483,1.953,1.9609,1.9651,1.9727,1.979,1.9908,1.9959,2.0031,2.0038,2.008,2.0049,2.0039,2.0041,2.0038,2.0044,2.0085,2.0086,2.0087,2.0087,0,1.9197,1.9217,1.9282,1.9356,1.941,1.947,1.9529,1.9562,1.9614,1.9665,1.9742,1.9791,1.9887,1.9963,2.0039,2.0079,2.0092,2.0096,2.011,2.0103,2.0086,2.0097,1.9977,2.0093,2.0093,2.0092,2.0092,2.0092,1.9254,1.9304,1.9371,1.9443,1.9492,1.9547,1.9599,1.9643,1.9708,1.979,1.981,1.9891,1.9955,2.0059,2.01,2.0164,2.0158,2.0178,2.0183,2.0188,2.019,2.0074,2.0178,2.0178,2.0178,2.0177,2.0177,0,1.9345,1.9389,1.9455,1.9538,1.9594,1.9601,1.9667,1.9715,1.9785,1.9844,1.9906,1.9994,2.0067,2.0123,2.0198,2.0238,2.0246,2.0257,2.0255,2.0264,2.0191,2.0172,2.0249,2.0249,2.0249,2.0249,2.0249,2.0249,1.9399,1.9484,1.9512,1.9621,1.9664,1.9744,1.9781,1.9832,1.988,1.9977,2.0038,2.0074,2.0132,2.0211,2.0279,2.0293,2.032,2.033,2.0346,2.0277,2.0269,2.0262,2.0244,2.0335,2.0335,2.0414,2.0415,2.0415]}]]